User: anonymous   Login
Location: Batang Balui
(2.7000°N, 113.7833°E)
Time: 13:04:17
(UTC+00:00)
Language:

CZ-6A DEB - Orbit

View from above orbital plane
View from above orbital plane
View from above satellite
View from above satellite

Ground track
Ground track

The orbit data is extracted from the following two-line orbital elements,

1 54307U 22151BA  23341.53508482  .00007055  00000-0  20001-2 0  9990
2 54307  98.6108 351.4527 0115076 233.7610 125.2900 14.41970002 55515
Epoch (UTC): 07 December 2023 12:50:31
Eccentricity: 0.0115076
inclination: 98.6108°
perigee height: 670 km
apogee height: 834 km
right ascension of ascending node: 351.4527°
argument of perigee: 233.7610°
revolutions per day: 14.41970002
mean anomaly at epoch: 125.2900°
orbit number at epoch: 5551

The dashed part of the orbit path shows where the satellite is in the earth's shadow,  

DLR